NIMIQ 5

Last updated on Thu Nov 21 2024 00:02:41 GMT+0000 (Coordinated Universal Time)

1 35873U 09050A 24325.28081289 -.00000255 00000+0 00000+0 0 9995 2 35873 0.0141 292.7540 0003454 316.4127 199.0146 1.00269535 55598
UTC large
Height (km)
Speed (km/s)
/
Latitude / Longitude
Inclination (degrees)
Orbital Period (minutes)
Azimuth
Elevation
Range (km)
Doppler Factor

Next 0 passes for location: London (51.5072 / 0.1276)

Sorry there are no passes over London.